| 
				
				
				
					
						
					 | 
				
				
				
					
					
					Kuiper Belt Object (278361) 2007 JJ43
					
					
					
					
						
					
					
						
							(Preview)
						
						
						
						
							
						
							
								Kuiper Belt Object (278361) 2007 JJ43 is at Opposition (42.405 AU) on the 27th November, 2012. Google earth file: Kuiper Belt Object 278361 (2007 JJ43).kmz (15kb, kmz) 
							 
							
						 
						
					
				 | 
				
					
						Blobrana
					 | 
				
				
					
						7
					 | 
				
				
				
					
						
					 | 
				
				
					
						
					 | 
				
			
		
			
			
				
				
					
						 
					 | 
				
				
				
					
						
					 | 
				
				
				
					
					
					Asteroid 2012 WF
					
					
					
					
						
					
					
						
							(Preview)
						
						
						
						
							
						
							
								Orbital elements:
2012 WF                                                  Earth MOID = 0.0081 AU
Epoch 2012 Sept. 30.0 TT = JDT 2456200.5                MPC
M   9.05435              (2000.0)            P               Q
n   0.83347170     Peri.  292.34944     +0.94529565     +0.26272555
a   1.1182583      Node    52.95494     -0.12839189     +0.84456279
e   0.1982442      Incl.   14.02040     -0.29988608     +0.46657152
P   1.18           H   26.1           G   0.... 
							 
							
						 
						
					
				 | 
				
					
						Blobrana
					 | 
				
				
					
						1
					 | 
				
				
				
					
						
					 | 
				
				
					
						
					 | 
				
			
		
			
			
				
				
					
						 
					 | 
				
				
				
					
						
					 | 
				
				
				
					
					
					Asteroid 2012 WS3
					
					
					
					
						
					
					
						
							(Preview)
						
						
						
						
							
						
							
								Orbital elements:
2012 WS3                                                 Earth MOID = 0.0010 AU
Epoch 2012 Sept. 30.0 TT = JDT 2456200.5                MPC
M  15.74240              (2000.0)            P               Q
n   0.83910007     Peri.   86.12722     +0.84494377     +0.53164430
a   1.1132522      Node   241.74726     -0.51330239     +0.77528200
e   0.2802957      Incl.    3.80910     -0.15030198     +0.34101636
P   1.17           H   25.8           G   0... 
							 
							
						 
						
					
				 | 
				
					
						Blobrana
					 | 
				
				
					
						1
					 | 
				
				
				
					
						
					 | 
				
				
					
						
					 | 
				
			
		
			
			
				
				
					
						 
					 | 
				
				
				
					
						
					 | 
				
				
				
					
					
					Asteroid 2012 DG61
					
					
					
					
						
					
					
						
							(Preview)
						
						
						
						
							
						
							
								Orbital elements:
2012 DG61                                                Earth MOID = 0.1641 AU
Epoch 2012 Mar. 14.0 TT = JDT 2456000.5                 MPC
M 334.76872              (2000.0)            P               Q
n   0.19007661     Peri.  186.89394     -0.18626310     +0.94767546
a   2.9958284      Node    72.62240     -0.88795866     -0.04942992
e   0.7227427      Incl.   15.76321     -0.42051811     -0.31538533
P   5.19           H   17.6... 
							 
							
						 
						
					
				 | 
				
					
						Blobrana
					 | 
				
				
					
						1
					 | 
				
				
				
					
						
					 | 
				
				
					
						
					 | 
				
			
		
			
			
				
				
					
						 
					 | 
				
				
				
					
						
					 | 
				
				
				
					
					
					Asteroid 2012 FD58
					
					
					
					
						
					
					
						
							(Preview)
						
						
						
						
							
						
							
								Orbital elements:
2012 FD58                                                Earth MOID = 0.1481 AU
Epoch 2012 Mar. 14.0 TT = JDT 2456000.5                 MPC
M 214.13628              (2000.0)            P               Q
n   0.83986008     Peri.  136.52244     +0.93895719     +0.32543350
a   1.1125805      Node   205.14036     -0.34047245     +0.92554818
e   0.3785520      Incl.   15.22833     +0.04937511     +0.19352932
P   1.17           H   21.... 
							 
							
						 
						
					
				 | 
				
					
						Blobrana
					 | 
				
				
					
						1
					 | 
				
				
				
					
						
					 | 
				
				
					
						
					 | 
				
			
		
			
			
				
				
					
						 
					 | 
				
				
				
					
						 
					 | 
				
				
				
					
					
					Asteroid 2012 YY6
					
					
					
					
						
					
					
						
							(Preview)
						
						
						
						
							
						
							
								Orbital elements:
2012 YY6                                            PHA, Earth MOID = 0.0361 AU
Epoch 2012 Sept. 30.0 TT = JDT 2456200.5                MPC
M 342.55960              (2000.0)            P               Q
n   0.53375188     Peri.  317.11464     +0.94087847     +0.33762453
a   1.5051384      Node    23.19607     -0.28880060     +0.84196555
e   0.6756591      Incl.    4.00658     -0.17703651     +0.42083689
P   1.85           H   2... 
							 
							
						 
						
					
				 | 
				
					
						Blobrana
					 | 
				
				
					
						1
					 | 
				
				
				
					
						
					 | 
				
				
					
						
					 | 
				
			
		
			
			
				
				
					
						 
					 | 
				
				
				
					
						
					 | 
				
				
				
					
					
					Asteroid 2012 SR56
					
					
					
					
						
					
					
						
							(Preview)
						
						
						
						
							
						
							
								Orbital elements:
2012 SR56                                                Earth MOID = 0.0036 AU
Epoch 2012 Sept. 30.0 TT = JDT 2456200.5                MPC
M  44.45175              (2000.0)            P               Q
n   0.67233958     Peri.  284.72259     +0.25382197     +0.96725095
a   1.2904572      Node   359.98118     -0.87127504     +0.22863045
e   0.3560980      Incl.    2.30084     -0.42006453     +0.11024386
P   1.47           H   24.3... 
							 
							
						 
						
					
				 | 
				
					
						Blobrana
					 | 
				
				
					
						1
					 | 
				
				
				
					
						
					 | 
				
				
					
						
					 | 
				
			
		
			
			
				
				
					
						 
					 | 
				
				
				
					
						
					 | 
				
				
				
					
					
					Asteroid 2012 HO1
					
					
					
					
						
					
					
						
							(Preview)
						
						
						
						
							
						
							
								Orbital elements:
2012 HO1                                                 Earth MOID = 0.1187 AU
Epoch 2012 Mar. 14.0 TT = JDT 2456000.5                 MPC
M 342.62288              (2000.0)            P               Q
n   0.32998868     Peri.  197.13932     -0.75294636     +0.65608399
a   2.0739742      Node    24.09719     -0.58811234     -0.63590945
e   0.4596230      Incl.    7.20971     -0.29528910     -0.40641478
P   2.99           H   23.4           G   0... 
							 
							
						 
						
					
				 | 
				
					
						Blobrana
					 | 
				
				
					
						4
					 | 
				
				
				
					
						
					 | 
				
				
					
						
					 | 
				
			
		
			
			
				
				
					
						 
					 | 
				
				
				
					
						 
					 | 
				
				
				
					
					
					Asteroid 2012 QG42
					
					
					
					
						
					
					
						
							(Preview)
						
						
						
						
							
						
							
								Orbital elements:
2012 QG42                                           PHA, Earth MOID = 0.0137 AU
Epoch 2012 Sept. 30.0 TT = JDT 2456200.5                MPC
M 308.63651              (2000.0)            P               Q
n   0.94803187     Peri.  116.11577     -0.19301091     -0.98070755
a   1.0262522      Node   344.91579     +0.85236094     -0.15194632
e   0.3761938      Incl.    6.83603     +0.48603252     -0.12298384
P   1.04... 
							 
							
						 
						
					
				 | 
				
					
						Blobrana
					 | 
				
				
					
						6
					 | 
				
				
				
					
						
					 | 
				
				
					
						
					 | 
				
			
		
			
			
				
				
					
						 
					 | 
				
				
				
					
						
					 | 
				
				
				
					
					
					Asteroid 2004 FG29
					
					
					
					
						
					
					
						
							(Preview)
						
						
						
						
							
						
							
								The 20 - 40 metre wide asteroid 2004 FG29 will make a close pass (75.2 lunar distances, 0.1932 AU), travelling at 20.55 km/second, to the Earth-Moon system on the 2nd January, 2012 @ 18:27 UT ±03:10.   See more  The Lunar Distance (LD), the distance between Earth and the Moon, equals 384,401 km, (or 0.00...  
							 
							
						 
						
					
				 | 
				
					
						Blobrana
					 | 
				
				
					
						1
					 | 
				
				
				
					
						
					 | 
				
				
					
						
					 | 
				
			
		
			
			
				
				
					
						 
					 | 
				
				
				
					
						
					 | 
				
				
				
					
					
					Asteroid 2012 DA14
					
					
						
						(
						 
						1 2 3 4
						)
						
					
					
					
						
					
					
						
							(Preview)
						
						
						
						
							
						
							
								Orbital elements:
2012 DA14                                                Earth MOID = 0.0002 AU
Epoch 2012 Mar. 14.0 TT = JDT 2456000.5                 MPC
M 103.32879              (2000.0)            P               Q
n   0.98299208     Peri.  271.10866     +0.51514870     -0.85159843
a   1.0017731      Node   147.29585     +0.84032283     +0.47954750
e   0.1082261      Incl.   10.33843     +0.16875831     +0.21169391
P   1.00           H   24....                               
							 
							
						 
						
					
				 | 
				
					
						Blobrana
					 | 
				
				
					
						32
					 | 
				
				
				
					
						
					 | 
				
				
					
						
					 | 
				
			
		
			
			
				
				
					
						 
					 | 
				
				
				
					
						
					 | 
				
				
				
					
					
					Asteroid (211) Isolda
					
					
					
					
						
					
					
						
							(Preview)
						
						
						
						
							
						
							
